Location: Rumah Geringgi
(3.1667°N, 113.1667°E)
Time: 11:10:32
(UTC+00:00)

ADEOS - Pass Details

Date: 03 August 2024
Orbit: 790 x 793 km, 98.9° (Epoch: 12 September)

Event Time Altitude Azimuth Distance (km) Brightness Sun altitude
Exits shadow 12:14:56 22° 178° (S) 1,666 5.0 -23.1°
Maximum altitude 12:18:19 70° 257° (WSW) 841 3.7 -23.9°
Drops below altitude 10° 12:23:28 10° 341° (NNW) 2,349 6.5 -25.1°
Sets 12:25:48 0° 343° (NNW) 3,277 7.3 -25.6°
